owner,sensor,date,latitude,longitude,vertical_datum,sea_water_practical_salinity,qcFlag 
FWRI,ioos:station:FWRI:NPD:2,2012-10-01T00:59:00Z,27.3338,-82.5794,0.0,36.0,1111122 
FWRI,ioos:station:FWRI:NPD:2,2012-10-01T01:59:00Z,27.3338,-82.5794,0.0,35.95,1111122 
FWRI,ioos:station:FWRI:NPD:2,2012-10-01T02:59:00Z,27.3338,-82.5794,0.0,36.07,1111122 
FWRI,ioos:station:FWRI:NPD:2,2012-10-01T03:59:00Z,27.3338,-82.5794,0.0,36.12,1111122 
FWRI,ioos:station:FWRI:NPD:2,2012-10-01T04:59:00Z,27.3338,-82.5794,0.0,36.13,1111122 
FWRI,ioos:station:FWRI:NPD:2,2012-10-01T05:59:00Z,27.3338,-82.5794,0.0,36.12,1111122 
FWRI,ioos:station:FWRI:NPD:2,2012-10-01T06:59:00Z,27.3338,-82.5794,0.0,36.11,1111122 
FWRI,ioos:station:FWRI:NPD:2,2012-10-01T07:59:00Z,27.3338,-82.5794,0.0,36.07,1111122 
FWRI,ioos:station:FWRI:NPD:2,2012-10-01T08:59:00Z,27.3338,-82.5794,0.0,36.06,1111122 
FWRI,ioos:station:FWRI:NPD:2,2012-10-01T09:59:00Z,27.3338,-82.5794,0.0,36.03,1111122 
FWRI,ioos:station:FWRI:NPD:2,2012-10-01T10:59:00Z,27.3338,-82.5794,0.0,35.99,1111122 
FWRI,ioos:station:FWRI:NPD:2,2012-10-01T11:59:00Z,27.3338,-82.5794,0.0,35.93,1111122 
FWRI,ioos:station:FWRI:NPD:2,2012-10-01T12:59:00Z,27.3338,-82.5794,0.0,35.85,1111122 
FWRI,ioos:station:FWRI:NPD:2,2012-10-01T13:59:00Z,27.3338,-82.5794,0.0,35.84,1111122 
FWRI,ioos:station:FWRI:NPD:2,2012-10-01T14:59:00Z,27.3338,-82.5794,0.0,36.02,1111122 
FWRI,ioos:station:FWRI:NPD:2,2012-10-01T15:59:00Z,27.3338,-82.5794,0.0,36.15,1111122 
FWRI,ioos:station:FWRI:NPD:2,2012-10-01T16:59:00Z,27.3338,-82.5794,0.0,36.21,1111122 
FWRI,ioos:station:FWRI:NPD:2,2012-10-01T17:59:00Z,27.3338,-82.5794,0.0,36.23,1111122 
FWRI,ioos:station:FWRI:NPD:2,2012-10-01T18:59:00Z,27.3338,-82.5794,0.0,36.22,1111122 
FWRI,ioos:station:FWRI:NPD:2,2012-10-01T19:59:00Z,27.3338,-82.5794,0.0,36.21,1111122 
FWRI,ioos:station:FWRI:NPD:2,2012-10-01T20:59:00Z,27.3338,-82.5794,0.0,36.2,1111122 
FWRI,ioos:station:FWRI:NPD:2,2012-10-01T21:59:00Z,27.3338,-82.5794,0.0,36.16,1111122 
FWRI,ioos:station:FWRI:NPD:2,2012-10-01T22:59:00Z,27.3338,-82.5794,0.0,36.15,1111122 
FWRI,ioos:station:FWRI:NPD:2,2012-10-01T23:59:00Z,27.3338,-82.5794,0.0,36.17,1111122 
FWRI,ioos:station:FWRI:NPD:2,2012-10-02T00:59:00Z,27.3338,-82.5794,0.0,36.12,1111122 
FWRI,ioos:station:FWRI:NPD:2,2012-10-02T01:59:00Z,27.3338,-82.5794,0.0,36.11,1111122 
FWRI,ioos:station:FWRI:NPD:2,2012-10-02T02:59:00Z,27.3338,-82.5794,0.0,36.15,1111122 
FWRI,ioos:station:FWRI:NPD:2,2012-10-02T03:59:00Z,27.3338,-82.5794,0.0,36.15,1111122 
FWRI,ioos:station:FWRI:NPD:2,2012-10-02T04:59:00Z,27.3338,-82.5794,0.0,36.14,1111122 
FWRI,ioos:station:FWRI:NPD:2,2012-10-02T05:59:00Z,27.3338,-82.5794,0.0,36.13,1111122 
FWRI,ioos:station:FWRI:NPD:2,2012-10-02T06:59:00Z,27.3338,-82.5794,0.0,36.12,1111122 
FWRI,ioos:station:FWRI:NPD:2,2012-10-02T07:59:00Z,27.3338,-82.5794,0.0,36.13,1111122 
FWRI,ioos:station:FWRI:NPD:2,2012-10-02T08:59:00Z,27.3338,-82.5794,0.0,36.14,1111122 
FWRI,ioos:station:FWRI:NPD:2,2012-10-02T09:59:00Z,27.3338,-82.5794,0.0,36.13,1111122 
FWRI,ioos:station:FWRI:NPD:2,2012-10-02T10:59:00Z,27.3338,-82.5794,0.0,36.13,1111122 
FWRI,ioos:station:FWRI:NPD:2,2012-10-02T11:59:00Z,27.3338,-82.5794,0.0,36.14,1111122 
FWRI,ioos:station:FWRI:NPD:2,2012-10-02T12:59:00Z,27.3338,-82.5794,0.0,36.13,1111122 
FWRI,ioos:station:FWRI:NPD:2,2012-10-02T13:59:00Z,27.3338,-82.5794,0.0,36.17,1111122 
FWRI,ioos:station:FWRI:NPD:2,2012-10-02T14:59:00Z,27.3338,-82.5794,0.0,36.08,1111122 
FWRI,ioos:station:FWRI:NPD:2,2012-10-02T15:59:00Z,27.3338,-82.5794,0.0,36.25,1111122 
FWRI,ioos:station:FWRI:NPD:2,2012-10-02T16:59:00Z,27.3338,-82.5794,0.0,36.26,1111122 
FWRI,ioos:station:FWRI:NPD:2,2012-10-02T17:59:00Z,27.3338,-82.5794,0.0,36.1,1111122 
FWRI,ioos:station:FWRI:NPD:2,2012-10-02T18:59:00Z,27.3338,-82.5794,0.0,36.02,1111122 
FWRI,ioos:station:FWRI:NPD:2,2012-10-02T19:59:00Z,27.3338,-82.5794,0.0,36.05,1111122 
FWRI,ioos:station:FWRI:NPD:2,2012-10-02T20:59:00Z,27.3338,-82.5794,0.0,36.03,1111122 
FWRI,ioos:station:FWRI:NPD:2,2012-10-02T21:59:00Z,27.3338,-82.5794,0.0,36.03,1111122 
FWRI,ioos:station:FWRI:NPD:2,2012-10-02T22:59:00Z,27.3338,-82.5794,0.0,36.05,1111122 
FWRI,ioos:station:FWRI:NPD:2,2012-10-02T23:59:00Z,27.3338,-82.5794,0.0,36.07,1111122 
FWRI,ioos:station:FWRI:NPD:2,2012-10-03T00:59:00Z,27.3338,-82.5794,0.0,36.05,1111122 
FWRI,ioos:station:FWRI:NPD:2,2012-10-03T01:59:00Z,27.3338,-82.5794,0.0,35.9,1111122 
FWRI,ioos:station:FWRI:NPD:2,2012-10-03T02:59:00Z,27.3338,-82.5794,0.0,36.21,1111122 
FWRI,ioos:station:FWRI:NPD:2,2012-10-03T03:59:00Z,27.3338,-82.5794,0.0,36.24,1111122 
FWRI,ioos:station:FWRI:NPD:2,2012-10-03T04:59:00Z,27.3338,-82.5794,0.0,36.2,1111122 
FWRI,ioos:station:FWRI:NPD:2,2012-10-03T05:59:00Z,27.3338,-82.5794,0.0,36.19,1111122 
FWRI,ioos:station:FWRI:NPD:2,2012-10-03T06:59:00Z,27.3338,-82.5794,0.0,36.16,1111122 
FWRI,ioos:station:FWRI:NPD:2,2012-10-03T07:59:00Z,27.3338,-82.5794,0.0,36.15,1111122 
FWRI,ioos:station:FWRI:NPD:2,2012-10-03T08:59:00Z,27.3338,-82.5794,0.0,36.13,1111122 
FWRI,ioos:station:FWRI:NPD:2,2012-10-03T09:59:00Z,27.3338,-82.5794,0.0,36.09,1111122 
FWRI,ioos:station:FWRI:NPD:2,2012-10-03T10:59:00Z,27.3338,-82.5794,0.0,36.09,1111122 
FWRI,ioos:station:FWRI:NPD:2,2012-10-03T11:59:00Z,27.3338,-82.5794,0.0,36.03,1111122 
FWRI,ioos:station:FWRI:NPD:2,2012-10-03T12:59:00Z,27.3338,-82.5794,0.0,35.97,1111122 
FWRI,ioos:station:FWRI:NPD:2,2012-10-03T13:59:00Z,27.3338,-82.5794,0.0,35.7,1111122 
FWRI,ioos:station:FWRI:NPD:2,2012-10-03T14:59:00Z,27.3338,-82.5794,0.0,35.21,1111122 
FWRI,ioos:station:FWRI:NPD:2,2012-10-03T15:59:00Z,27.3338,-82.5794,0.0,35.53,1111122 
FWRI,ioos:station:FWRI:NPD:2,2012-10-03T16:59:00Z,27.3338,-82.5794,0.0,35.83,1111122 
FWRI,ioos:station:FWRI:NPD:2,2012-10-03T17:59:00Z,27.3338,-82.5794,0.0,36.2,1111122 
FWRI,ioos:station:FWRI:NPD:2,2012-10-03T18:59:00Z,27.3338,-82.5794,0.0,36.08,1111122 
FWRI,ioos:station:FWRI:NPD:2,2012-10-03T19:59:00Z,27.3338,-82.5794,0.0,35.45,1111122 
FWRI,ioos:station:FWRI:NPD:2,2012-10-03T20:59:00Z,27.3338,-82.5794,0.0,35.49,1111122 
FWRI,ioos:station:FWRI:NPD:2,2012-10-03T21:59:00Z,27.3338,-82.5794,0.0,35.58,1111122 
FWRI,ioos:station:FWRI:NPD:2,2012-10-03T22:59:00Z,27.3338,-82.5794,0.0,35.51,1111122 
FWRI,ioos:station:FWRI:NPD:2,2012-10-03T23:59:00Z,27.3338,-82.5794,0.0,35.51,1111122 
FWRI,ioos:station:FWRI:NPD:2,2012-10-04T00:59:00Z,27.3338,-82.5794,0.0,35.46,1111122 
FWRI,ioos:station:FWRI:NPD:2,2012-10-04T01:59:00Z,27.3338,-82.5794,0.0,35.09,1111122 
FWRI,ioos:station:FWRI:NPD:2,2012-10-04T02:59:00Z,27.3338,-82.5794,0.0,35.58,1111122 
FWRI,ioos:station:FWRI:NPD:2,2012-10-04T03:59:00Z,27.3338,-82.5794,0.0,35.75,1111122 
FWRI,ioos:station:FWRI:NPD:2,2012-10-04T04:59:00Z,27.3338,-82.5794,0.0,35.79,1111122 
FWRI,ioos:station:FWRI:NPD:2,2012-10-04T05:59:00Z,27.3338,-82.5794,0.0,35.81,1111122 
FWRI,ioos:station:FWRI:NPD:2,2012-10-04T06:59:00Z,27.3338,-82.5794,0.0,35.83,1111122 
FWRI,ioos:station:FWRI:NPD:2,2012-10-04T07:59:00Z,27.3338,-82.5794,0.0,35.81,1111122 
FWRI,ioos:station:FWRI:NPD:2,2012-10-04T08:59:00Z,27.3338,-82.5794,0.0,35.79,1111122 
FWRI,ioos:station:FWRI:NPD:2,2012-10-04T09:59:00Z,27.3338,-82.5794,0.0,35.78,1111122 
FWRI,ioos:station:FWRI:NPD:2,2012-10-04T10:59:00Z,27.3338,-82.5794,0.0,35.57,1111122 
FWRI,ioos:station:FWRI:NPD:2,2012-10-04T11:59:00Z,27.3338,-82.5794,0.0,35.33,1111122 
FWRI,ioos:station:FWRI:NPD:2,2012-10-04T12:59:00Z,27.3338,-82.5794,0.0,35.2,1111122 
FWRI,ioos:station:FWRI:NPD:2,2012-10-04T13:59:00Z,27.3338,-82.5794,0.0,35.24,1111122 
FWRI,ioos:station:FWRI:NPD:2,2012-10-04T14:59:00Z,27.3338,-82.5794,0.0,35.27,1111122 
FWRI,ioos:station:FWRI:NPD:2,2012-10-04T15:59:00Z,27.3338,-82.5794,0.0,35.3,1111122 
FWRI,ioos:station:FWRI:NPD:2,2012-10-04T16:59:00Z,27.3338,-82.5794,0.0,35.22,1111122 
FWRI,ioos:station:FWRI:NPD:2,2012-10-04T17:59:00Z,27.3338,-82.5794,0.0,35.83,1111122 
FWRI,ioos:station:FWRI:NPD:2,2012-10-04T18:59:00Z,27.3338,-82.5794,0.0,35.96,1111122 
FWRI,ioos:station:FWRI:NPD:2,2012-10-04T19:59:00Z,27.3338,-82.5794,0.0,36.01,1111122 
FWRI,ioos:station:FWRI:NPD:2,2012-10-04T20:59:00Z,27.3338,-82.5794,0.0,36.03,1111122 
FWRI,ioos:station:FWRI:NPD:2,2012-10-04T21:59:00Z,27.3338,-82.5794,0.0,35.95,1111122 
FWRI,ioos:station:FWRI:NPD:2,2012-10-04T22:59:00Z,27.3338,-82.5794,0.0,35.76,1111122 
FWRI,ioos:station:FWRI:NPD:2,2012-10-04T23:59:00Z,27.3338,-82.5794,0.0,35.3,1111122 
FWRI,ioos:station:FWRI:NPD:2,2012-10-05T00:59:00Z,27.3338,-82.5794,0.0,35.22,1111122 
FWRI,ioos:station:FWRI:NPD:2,2012-10-05T01:59:00Z,27.3338,-82.5794,0.0,35.24,1111122 
FWRI,ioos:station:FWRI:NPD:2,2012-10-05T02:59:00Z,27.3338,-82.5794,0.0,35.25,1111122 
FWRI,ioos:station:FWRI:NPD:2,2012-10-05T03:59:00Z,27.3338,-82.5794,0.0,35.58,1111122 
FWRI,ioos:station:FWRI:NPD:2,2012-10-05T04:59:00Z,27.3338,-82.5794,0.0,35.73,1111122 
FWRI,ioos:station:FWRI:NPD:2,2012-10-05T05:59:00Z,27.3338,-82.5794,0.0,35.83,1111122 
FWRI,ioos:station:FWRI:NPD:2,2012-10-05T06:59:00Z,27.3338,-82.5794,0.0,35.84,1111122 
FWRI,ioos:station:FWRI:NPD:2,2012-10-05T07:59:00Z,27.3338,-82.5794,0.0,35.87,1111122 
FWRI,ioos:station:FWRI:NPD:2,2012-10-05T08:59:00Z,27.3338,-82.5794,0.0,35.89,1111122 
FWRI,ioos:station:FWRI:NPD:2,2012-10-05T09:59:00Z,27.3338,-82.5794,0.0,35.87,1111122 
FWRI,ioos:station:FWRI:NPD:2,2012-10-05T10:59:00Z,27.3338,-82.5794,0.0,35.25,1111122 
FWRI,ioos:station:FWRI:NPD:2,2012-10-05T11:59:00Z,27.3338,-82.5794,0.0,34.69,1111122 
FWRI,ioos:station:FWRI:NPD:2,2012-10-05T12:59:00Z,27.3338,-82.5794,0.0,34.61,1111122 
FWRI,ioos:station:FWRI:NPD:2,2012-10-05T13:59:00Z,27.3338,-82.5794,0.0,34.62,1111122 
FWRI,ioos:station:FWRI:NPD:2,2012-10-05T14:59:00Z,27.3338,-82.5794,0.0,34.4,1111122 
FWRI,ioos:station:FWRI:NPD:2,2012-10-05T15:59:00Z,27.3338,-82.5794,0.0,34.43,1111122 
FWRI,ioos:station:FWRI:NPD:2,2012-10-05T16:59:00Z,27.3338,-82.5794,0.0,34.55,1111122 
FWRI,ioos:station:FWRI:NPD:2,2012-10-05T17:59:00Z,27.3338,-82.5794,0.0,34.81,1111122 
FWRI,ioos:station:FWRI:NPD:2,2012-10-05T18:59:00Z,27.3338,-82.5794,0.0,35.63,1111122 
FWRI,ioos:station:FWRI:NPD:2,2012-10-05T19:59:00Z,27.3338,-82.5794,0.0,35.84,1111122 
FWRI,ioos:station:FWRI:NPD:2,2012-10-05T20:59:00Z,27.3338,-82.5794,0.0,35.88,1111122 
FWRI,ioos:station:FWRI:NPD:2,2012-10-05T21:59:00Z,27.3338,-82.5794,0.0,35.94,1111122 
FWRI,ioos:station:FWRI:NPD:2,2012-10-05T22:59:00Z,27.3338,-82.5794,0.0,35.86,1111122 
FWRI,ioos:station:FWRI:NPD:2,2012-10-05T23:59:00Z,27.3338,-82.5794,0.0,35.89,1111122 
FWRI,ioos:station:FWRI:NPD:2,2012-10-06T00:59:00Z,27.3338,-82.5794,0.0,35.86,1111122 
FWRI,ioos:station:FWRI:NPD:2,2012-10-06T01:59:00Z,27.3338,-82.5794,0.0,35.81,1111122 
FWRI,ioos:station:FWRI:NPD:2,2012-10-06T02:59:00Z,27.3338,-82.5794,0.0,35.56,1111122 
FWRI,ioos:station:FWRI:NPD:2,2012-10-06T03:59:00Z,27.3338,-82.5794,0.0,35.6,1111122 
FWRI,ioos:station:FWRI:NPD:2,2012-10-06T04:59:00Z,27.3338,-82.5794,0.0,35.64,1111122 
FWRI,ioos:station:FWRI:NPD:2,2012-10-06T05:59:00Z,27.3338,-82.5794,0.0,35.77,1111122 
FWRI,ioos:station:FWRI:NPD:2,2012-10-06T06:59:00Z,27.3338,-82.5794,0.0,35.86,1111122 
FWRI,ioos:station:FWRI:NPD:2,2012-10-06T07:59:00Z,27.3338,-82.5794,0.0,35.89,1111122 
FWRI,ioos:station:FWRI:NPD:2,2012-10-06T08:59:00Z,27.3338,-82.5794,0.0,35.91,1111122 
FWRI,ioos:station:FWRI:NPD:2,2012-10-06T09:59:00Z,27.3338,-82.5794,0.0,35.92,1111122 
FWRI,ioos:station:FWRI:NPD:2,2012-10-06T10:59:00Z,27.3338,-82.5794,0.0,35.92,1111122 
FWRI,ioos:station:FWRI:NPD:2,2012-10-06T11:59:00Z,27.3338,-82.5794,0.0,35.54,1111122 
FWRI,ioos:station:FWRI:NPD:2,2012-10-06T12:59:00Z,27.3338,-82.5794,0.0,35.12,1111122 
FWRI,ioos:station:FWRI:NPD:2,2012-10-06T13:59:00Z,27.3338,-82.5794,0.0,34.89,1111122 
FWRI,ioos:station:FWRI:NPD:2,2012-10-06T14:59:00Z,27.3338,-82.5794,0.0,34.79,1111122 
FWRI,ioos:station:FWRI:NPD:2,2012-10-06T15:59:00Z,27.3338,-82.5794,0.0,34.7,1111122 
FWRI,ioos:station:FWRI:NPD:2,2012-10-06T16:59:00Z,27.3338,-82.5794,0.0,34.62,1111122 
FWRI,ioos:station:FWRI:NPD:2,2012-10-06T17:59:00Z,27.3338,-82.5794,0.0,34.78,1111122 
FWRI,ioos:station:FWRI:NPD:2,2012-10-06T18:59:00Z,27.3338,-82.5794,0.0,35.17,1111122 
FWRI,ioos:station:FWRI:NPD:2,2012-10-06T19:59:00Z,27.3338,-82.5794,0.0,35.63,1111122 
FWRI,ioos:station:FWRI:NPD:2,2012-10-06T20:59:00Z,27.3338,-82.5794,0.0,35.76,1111122 
FWRI,ioos:station:FWRI:NPD:2,2012-10-06T21:59:00Z,27.3338,-82.5794,0.0,35.83,1111122 
FWRI,ioos:station:FWRI:NPD:2,2012-10-06T22:59:00Z,27.3338,-82.5794,0.0,35.85,1111122 
FWRI,ioos:station:FWRI:NPD:2,2012-10-06T23:59:00Z,27.3338,-82.5794,0.0,35.83,1111122 
FWRI,ioos:station:FWRI:NPD:2,2012-10-07T00:59:00Z,27.3338,-82.5794,0.0,35.8,1111122 
FWRI,ioos:station:FWRI:NPD:2,2012-10-07T01:59:00Z,27.3338,-82.5794,0.0,35.59,1111122 
FWRI,ioos:station:FWRI:NPD:2,2012-10-07T02:59:00Z,27.3338,-82.5794,0.0,35.7,1111122 
FWRI,ioos:station:FWRI:NPD:2,2012-10-07T03:59:00Z,27.3338,-82.5794,0.0,35.7,1111122 
FWRI,ioos:station:FWRI:NPD:2,2012-10-07T04:59:00Z,27.3338,-82.5794,0.0,35.79,1111122 
FWRI,ioos:station:FWRI:NPD:2,2012-10-07T05:59:00Z,27.3338,-82.5794,0.0,35.83,1111122 
FWRI,ioos:station:FWRI:NPD:2,2012-10-07T06:59:00Z,27.3338,-82.5794,0.0,35.85,1111122 
FWRI,ioos:station:FWRI:NPD:2,2012-10-07T07:59:00Z,27.3338,-82.5794,0.0,35.88,1111122 
FWRI,ioos:station:FWRI:NPD:2,2012-10-07T08:59:00Z,27.3338,-82.5794,0.0,35.86,1111122 
FWRI,ioos:station:FWRI:NPD:2,2012-10-07T09:59:00Z,27.3338,-82.5794,0.0,35.87,1111122 
FWRI,ioos:station:FWRI:NPD:2,2012-10-07T10:59:00Z,27.3338,-82.5794,0.0,35.88,1111122 
FWRI,ioos:station:FWRI:NPD:2,2012-10-07T11:59:00Z,27.3338,-82.5794,0.0,35.87,1111122 
FWRI,ioos:station:FWRI:NPD:2,2012-10-07T12:59:00Z,27.3338,-82.5794,0.0,35.24,1111122 
FWRI,ioos:station:FWRI:NPD:2,2012-10-07T13:59:00Z,27.3338,-82.5794,0.0,34.97,1111122 
FWRI,ioos:station:FWRI:NPD:2,2012-10-07T14:59:00Z,27.3338,-82.5794,0.0,34.93,1111122 
FWRI,ioos:station:FWRI:NPD:2,2012-10-07T15:59:00Z,27.3338,-82.5794,0.0,34.95,1111122 
FWRI,ioos:station:FWRI:NPD:2,2012-10-07T16:59:00Z,27.3338,-82.5794,0.0,34.78,1111122 
FWRI,ioos:station:FWRI:NPD:2,2012-10-07T17:59:00Z,27.3338,-82.5794,0.0,34.65,1111122 
FWRI,ioos:station:FWRI:NPD:2,2012-10-07T18:59:00Z,27.3338,-82.5794,0.0,34.85,1111122 
FWRI,ioos:station:FWRI:NPD:2,2012-10-07T19:59:00Z,27.3338,-82.5794,0.0,35.15,1111122 
FWRI,ioos:station:FWRI:NPD:2,2012-10-07T20:59:00Z,27.3338,-82.5794,0.0,35.67,1111122 
FWRI,ioos:station:FWRI:NPD:2,2012-10-07T21:59:00Z,27.3338,-82.5794,0.0,35.83,1111122 
FWRI,ioos:station:FWRI:NPD:2,2012-10-07T22:59:00Z,27.3338,-82.5794,0.0,35.82,1111122 
FWRI,ioos:station:FWRI:NPD:2,2012-10-07T23:59:00Z,27.3338,-82.5794,0.0,35.88,1111122 
FWRI,ioos:station:FWRI:NPD:2,2012-10-08T00:59:00Z,27.3338,-82.5794,0.0,35.78,1111122 
FWRI,ioos:station:FWRI:NPD:2,2012-10-08T01:59:00Z,27.3338,-82.5794,0.0,35.69,1111122 
FWRI,ioos:station:FWRI:NPD:2,2012-10-08T02:59:00Z,27.3338,-82.5794,0.0,35.64,1111122 
FWRI,ioos:station:FWRI:NPD:2,2012-10-08T03:59:00Z,27.3338,-82.5794,0.0,35.62,1111122 
FWRI,ioos:station:FWRI:NPD:2,2012-10-08T04:59:00Z,27.3338,-82.5794,0.0,35.62,1111122 
FWRI,ioos:station:FWRI:NPD:2,2012-10-08T05:59:00Z,27.3338,-82.5794,0.0,35.61,1111122 
FWRI,ioos:station:FWRI:NPD:2,2012-10-08T06:59:00Z,27.3338,-82.5794,0.0,35.55,1111122 
FWRI,ioos:station:FWRI:NPD:2,2012-10-08T07:59:00Z,27.3338,-82.5794,0.0,35.6,1111122 
FWRI,ioos:station:FWRI:NPD:2,2012-10-08T08:59:00Z,27.3338,-82.5794,0.0,35.64,1111122 
FWRI,ioos:station:FWRI:NPD:2,2012-10-08T09:59:00Z,27.3338,-82.5794,0.0,35.68,1111122 
FWRI,ioos:station:FWRI:NPD:2,2012-10-08T10:59:00Z,27.3338,-82.5794,0.0,35.73,1111122 
FWRI,ioos:station:FWRI:NPD:2,2012-10-08T11:59:00Z,27.3338,-82.5794,0.0,35.74,1111122 
FWRI,ioos:station:FWRI:NPD:2,2012-10-08T12:59:00Z,27.3338,-82.5794,0.0,35.61,1111122 
FWRI,ioos:station:FWRI:NPD:2,2012-10-08T13:59:00Z,27.3338,-82.5794,0.0,34.99,1111122 
FWRI,ioos:station:FWRI:NPD:2,2012-10-08T14:59:00Z,27.3338,-82.5794,0.0,34.58,1111122 
FWRI,ioos:station:FWRI:NPD:2,2012-10-08T15:59:00Z,27.3338,-82.5794,0.0,34.61,1111122 
FWRI,ioos:station:FWRI:NPD:2,2012-10-08T16:59:00Z,27.3338,-82.5794,0.0,34.72,1111122 
FWRI,ioos:station:FWRI:NPD:2,2012-10-08T17:59:00Z,27.3338,-82.5794,0.0,34.56,1111122 
FWRI,ioos:station:FWRI:NPD:2,2012-10-08T18:59:00Z,27.3338,-82.5794,0.0,34.63,1111122 
FWRI,ioos:station:FWRI:NPD:2,2012-10-08T19:59:00Z,27.3338,-82.5794,0.0,34.64,1111122 
FWRI,ioos:station:FWRI:NPD:2,2012-10-08T20:59:00Z,27.3338,-82.5794,0.0,34.81,1111122 
FWRI,ioos:station:FWRI:NPD:2,2012-10-08T21:59:00Z,27.3338,-82.5794,0.0,35.15,1111122 
FWRI,ioos:station:FWRI:NPD:2,2012-10-08T22:59:00Z,27.3338,-82.5794,0.0,35.46,1111122 
FWRI,ioos:station:FWRI:NPD:2,2012-10-08T23:59:00Z,27.3338,-82.5794,0.0,35.57,1111122 
FWRI,ioos:station:FWRI:NPD:2,2012-10-09T00:59:00Z,27.3338,-82.5794,0.0,35.59,1111122 
FWRI,ioos:station:FWRI:NPD:2,2012-10-09T01:59:00Z,27.3338,-82.5794,0.0,35.58,1111122 
FWRI,ioos:station:FWRI:NPD:2,2012-10-09T02:59:00Z,27.3338,-82.5794,0.0,35.58,1111122 
FWRI,ioos:station:FWRI:NPD:2,2012-10-09T03:59:00Z,27.3338,-82.5794,0.0,35.6,1111122 
FWRI,ioos:station:FWRI:NPD:2,2012-10-09T04:59:00Z,27.3338,-82.5794,0.0,35.59,1111122 
FWRI,ioos:station:FWRI:NPD:2,2012-10-09T05:59:00Z,27.3338,-82.5794,0.0,35.5,1111122 
FWRI,ioos:station:FWRI:NPD:2,2012-10-09T06:59:00Z,27.3338,-82.5794,0.0,35.29,1111122 
FWRI,ioos:station:FWRI:NPD:2,2012-10-09T07:59:00Z,27.3338,-82.5794,0.0,35.41,1111122 
FWRI,ioos:station:FWRI:NPD:2,2012-10-09T08:59:00Z,27.3338,-82.5794,0.0,35.5,1111122 
FWRI,ioos:station:FWRI:NPD:2,2012-10-09T09:59:00Z,27.3338,-82.5794,0.0,35.52,1111122 
FWRI,ioos:station:FWRI:NPD:2,2012-10-09T10:59:00Z,27.3338,-82.5794,0.0,35.55,1111122 
FWRI,ioos:station:FWRI:NPD:2,2012-10-09T11:59:00Z,27.3338,-82.5794,0.0,35.55,1111122 
FWRI,ioos:station:FWRI:NPD:2,2012-10-09T12:59:00Z,27.3338,-82.5794,0.0,35.57,1111122 
FWRI,ioos:station:FWRI:NPD:2,2012-10-09T13:59:00Z,27.3338,-82.5794,0.0,35.72,1111122 
FWRI,ioos:station:FWRI:NPD:2,2012-10-09T14:59:00Z,27.3338,-82.5794,0.0,35.41,1111122 
FWRI,ioos:station:FWRI:NPD:2,2012-10-09T15:59:00Z,27.3338,-82.5794,0.0,34.88,1111122 
FWRI,ioos:station:FWRI:NPD:2,2012-10-09T16:59:00Z,27.3338,-82.5794,0.0,34.74,1111122 
FWRI,ioos:station:FWRI:NPD:2,2012-10-09T17:59:00Z,27.3338,-82.5794,0.0,34.67,1111122 
FWRI,ioos:station:FWRI:NPD:2,2012-10-09T18:59:00Z,27.3338,-82.5794,0.0,34.59,1111122 
FWRI,ioos:station:FWRI:NPD:2,2012-10-09T19:59:00Z,27.3338,-82.5794,0.0,34.56,1111122 
FWRI,ioos:station:FWRI:NPD:2,2012-10-09T20:59:00Z,27.3338,-82.5794,0.0,34.55,1111122 
FWRI,ioos:station:FWRI:NPD:2,2012-10-09T21:59:00Z,27.3338,-82.5794,0.0,34.59,1111122 
FWRI,ioos:station:FWRI:NPD:2,2012-10-09T22:59:00Z,27.3338,-82.5794,0.0,34.96,1111122 
FWRI,ioos:station:FWRI:NPD:2,2012-10-09T23:59:00Z,27.3338,-82.5794,0.0,35.54,1111122 
FWRI,ioos:station:FWRI:NPD:2,2012-10-10T00:59:00Z,27.3338,-82.5794,0.0,35.76,1111122 
FWRI,ioos:station:FWRI:NPD:2,2012-10-10T01:59:00Z,27.3338,-82.5794,0.0,35.81,1111122 
FWRI,ioos:station:FWRI:NPD:2,2012-10-10T02:59:00Z,27.3338,-82.5794,0.0,35.89,1111122 
FWRI,ioos:station:FWRI:NPD:2,2012-10-10T03:59:00Z,27.3338,-82.5794,0.0,35.91,1111122 
FWRI,ioos:station:FWRI:NPD:2,2012-10-10T04:59:00Z,27.3338,-82.5794,0.0,35.89,1111122 
FWRI,ioos:station:FWRI:NPD:2,2012-10-10T05:59:00Z,27.3338,-82.5794,0.0,35.54,1111122 
FWRI,ioos:station:FWRI:NPD:2,2012-10-10T06:59:00Z,27.3338,-82.5794,0.0,35.38,1111122 
FWRI,ioos:station:FWRI:NPD:2,2012-10-10T07:59:00Z,27.3338,-82.5794,0.0,35.25,1111122 
FWRI,ioos:station:FWRI:NPD:2,2012-10-10T08:59:00Z,27.3338,-82.5794,0.0,35.17,1111122 
FWRI,ioos:station:FWRI:NPD:2,2012-10-10T09:59:00Z,27.3338,-82.5794,0.0,35.36,1111122 
FWRI,ioos:station:FWRI:NPD:2,2012-10-10T10:59:00Z,27.3338,-82.5794,0.0,35.64,1111122 
FWRI,ioos:station:FWRI:NPD:2,2012-10-10T11:59:00Z,27.3338,-82.5794,0.0,35.76,1111122 
FWRI,ioos:station:FWRI:NPD:2,2012-10-10T12:59:00Z,27.3338,-82.5794,0.0,35.8,1111122 
FWRI,ioos:station:FWRI:NPD:2,2012-10-10T13:59:00Z,27.3338,-82.5794,0.0,35.92,1111122 
FWRI,ioos:station:FWRI:NPD:2,2012-10-10T14:59:00Z,27.3338,-82.5794,0.0,36.05,1111122 
FWRI,ioos:station:FWRI:NPD:2,2012-10-10T15:59:00Z,27.3338,-82.5794,0.0,36.04,1111122 
FWRI,ioos:station:FWRI:NPD:2,2012-10-10T16:59:00Z,27.3338,-82.5794,0.0,35.62,1111122 
FWRI,ioos:station:FWRI:NPD:2,2012-10-10T17:59:00Z,27.3338,-82.5794,0.0,35.18,1111122 
FWRI,ioos:station:FWRI:NPD:2,2012-10-10T18:59:00Z,27.3338,-82.5794,0.0,34.99,1111122 
FWRI,ioos:station:FWRI:NPD:2,2012-10-10T19:59:00Z,27.3338,-82.5794,0.0,34.91,1111122 
FWRI,ioos:station:FWRI:NPD:2,2012-10-10T20:59:00Z,27.3338,-82.5794,0.0,34.82,1111122 
FWRI,ioos:station:FWRI:NPD:2,2012-10-10T21:59:00Z,27.3338,-82.5794,0.0,34.92,1111122 
FWRI,ioos:station:FWRI:NPD:2,2012-10-10T22:59:00Z,27.3338,-82.5794,0.0,35.06,1111122 
FWRI,ioos:station:FWRI:NPD:2,2012-10-10T23:59:00Z,27.3338,-82.5794,0.0,35.63,1111122 
FWRI,ioos:station:FWRI:NPD:2,2012-10-11T00:59:00Z,27.3338,-82.5794,0.0,35.77,1111122 
FWRI,ioos:station:FWRI:NPD:2,2012-10-11T01:59:00Z,27.3338,-82.5794,0.0,35.84,1111122 
FWRI,ioos:station:FWRI:NPD:2,2012-10-11T02:59:00Z,27.3338,-82.5794,0.0,35.88,1111122 
FWRI,ioos:station:FWRI:NPD:2,2012-10-11T03:59:00Z,27.3338,-82.5794,0.0,35.89,1111122 
FWRI,ioos:station:FWRI:NPD:2,2012-10-11T04:59:00Z,27.3338,-82.5794,0.0,35.89,1111122 
FWRI,ioos:station:FWRI:NPD:2,2012-10-11T05:59:00Z,27.3338,-82.5794,0.0,35.65,1111122 
FWRI,ioos:station:FWRI:NPD:2,2012-10-11T06:59:00Z,27.3338,-82.5794,0.0,35.35,1111122 
FWRI,ioos:station:FWRI:NPD:2,2012-10-11T07:59:00Z,27.3338,-82.5794,0.0,35.11,1111122 
FWRI,ioos:station:FWRI:NPD:2,2012-10-11T08:59:00Z,27.3338,-82.5794,0.0,34.92,1111122 
FWRI,ioos:station:FWRI:NPD:2,2012-10-11T09:59:00Z,27.3338,-82.5794,0.0,34.89,1111122 
FWRI,ioos:station:FWRI:NPD:2,2012-10-11T10:59:00Z,27.3338,-82.5794,0.0,34.86,1111122 
FWRI,ioos:station:FWRI:NPD:2,2012-10-11T11:59:00Z,27.3338,-82.5794,0.0,35.22,1111122 
FWRI,ioos:station:FWRI:NPD:2,2012-10-11T12:59:00Z,27.3338,-82.5794,0.0,35.43,1111122 
FWRI,ioos:station:FWRI:NPD:2,2012-10-11T13:59:00Z,27.3338,-82.5794,0.0,35.59,1111122 
FWRI,ioos:station:FWRI:NPD:2,2012-10-11T14:59:00Z,27.3338,-82.5794,0.0,35.68,1111122 
FWRI,ioos:station:FWRI:NPD:2,2012-10-11T15:59:00Z,27.3338,-82.5794,0.0,35.91,1111122 
FWRI,ioos:station:FWRI:NPD:2,2012-10-11T16:59:00Z,27.3338,-82.5794,0.0,35.9,1111122 
FWRI,ioos:station:FWRI:NPD:2,2012-10-11T17:59:00Z,27.3338,-82.5794,0.0,35.72,1111122 
FWRI,ioos:station:FWRI:NPD:2,2012-10-11T18:59:00Z,27.3338,-82.5794,0.0,35.42,1111122 
FWRI,ioos:station:FWRI:NPD:2,2012-10-11T19:59:00Z,27.3338,-82.5794,0.0,35.22,1111122 
FWRI,ioos:station:FWRI:NPD:2,2012-10-11T20:59:00Z,27.3338,-82.5794,0.0,35.17,1111122 
FWRI,ioos:station:FWRI:NPD:2,2012-10-11T21:59:00Z,27.3338,-82.5794,0.0,35.11,1111122 
FWRI,ioos:station:FWRI:NPD:2,2012-10-11T22:59:00Z,27.3338,-82.5794,0.0,35.22,1111122 
FWRI,ioos:station:FWRI:NPD:2,2012-10-11T23:59:00Z,27.3338,-82.5794,0.0,35.7,1111122 
FWRI,ioos:station:FWRI:NPD:2,2012-10-12T00:59:00Z,27.3338,-82.5794,0.0,35.82,1111122 
FWRI,ioos:station:FWRI:NPD:2,2012-10-12T01:59:00Z,27.3338,-82.5794,0.0,35.89,1111122 
FWRI,ioos:station:FWRI:NPD:2,2012-10-12T02:59:00Z,27.3338,-82.5794,0.0,35.88,1111122 
FWRI,ioos:station:FWRI:NPD:2,2012-10-12T03:59:00Z,27.3338,-82.5794,0.0,35.86,1111122 
FWRI,ioos:station:FWRI:NPD:2,2012-10-12T04:59:00Z,27.3338,-82.5794,0.0,35.84,1111122 
FWRI,ioos:station:FWRI:NPD:2,2012-10-12T05:59:00Z,27.3338,-82.5794,0.0,35.77,1111122 
FWRI,ioos:station:FWRI:NPD:2,2012-10-12T06:59:00Z,27.3338,-82.5794,0.0,35.63,1111122 
FWRI,ioos:station:FWRI:NPD:2,2012-10-12T07:59:00Z,27.3338,-82.5794,0.0,35.13,1111122 
FWRI,ioos:station:FWRI:NPD:2,2012-10-12T08:59:00Z,27.3338,-82.5794,0.0,34.91,1111122 
FWRI,ioos:station:FWRI:NPD:2,2012-10-12T09:59:00Z,27.3338,-82.5794,0.0,34.86,1111122 
FWRI,ioos:station:FWRI:NPD:2,2012-10-12T10:59:00Z,27.3338,-82.5794,0.0,34.91,1111122 
FWRI,ioos:station:FWRI:NPD:2,2012-10-12T11:59:00Z,27.3338,-82.5794,0.0,35.08,1111122 
FWRI,ioos:station:FWRI:NPD:2,2012-10-12T12:59:00Z,27.3338,-82.5794,0.0,35.42,1111122 
FWRI,ioos:station:FWRI:NPD:2,2012-10-12T13:59:00Z,27.3338,-82.5794,0.0,35.66,1111122 